Voltar ao catálogo

STARLINK-30542

AtivoComunicaçõesVLEO
NORAD 58041·PAYLOAD·🇺🇸 United States

Lançado Oct 9, 2023 de Vandenberg Space Force Base

Loading…

Próximas Passagens (próximas 24 horas)

TLE

AtualizadoSource: CelesTrak SupGP

Época: Sep 15, 2026, 02:52 UTC

1 58041C 23156P   26258.11993056 -.00004419  00000+0 -13054-3 0  2585
2 58041  53.1568 276.5147 0001268  97.5078  90.6951 15.34398886    19

Acompanhe STARLINK-30542 em tempo real com AllMySat

Download on the App Store